[[{"header":{"parameterUnit":"m.s-1","parameterCategory":2,"la1":30.2992,"la2":30.254,"lo1":-89.0895,"lo2":-89.0443,"dy":0.0025,"dx":0.0025,"nx":19,"ny":19,"refTime":"2026-05-21T03:00:00:Z","depth":"0","parameterNumber":2,"parameterNumberName":"U-component_of_CURRENTS"},"data":[0,0,0,0.0697,0.0698,0.0722,0.0722,0.0717,0.0717,0,0,0,0,0,0,0,0,0,0,0,0.0689,0.069,0.0697,0.0698,0.0722,0.0722,0.0717,0.0717,0,0,0,0,0,0,0,0,0,0,0,0.0689,0.0689,0.069,0.0698,0.0722,0.0722,0.0717,0.0705,0,0,0,0,0,0,0,0,0,0,0.0685,0.0685,0.0689,0.069,0.0698,0.0722,0.0722,0.0705,0.0706,0.0698,0,0.0712,0,0.0717,0.0716,0.0716,0,0,0,0.0689,0.0684,0.0694,0.069,0.0698,0.0722,0.0708,0.0706,0.0707,0.0699,0.0712,0.0712,0.0717,0.0716,0.0716,0.0774,0.0774,0,0,0.0687,0.0687,0.0694,0.0696,0.0716,0.0708,0.0709,0.0707,0.071,0.0712,0.0712,0.0717,0.0716,0.0716,0.0773,0.0774,0,0,0,0.069,0.0686,0.0696,0.0695,0.0705,0.0709,0.071,0.071,0.0715,0.0712,0.0717,0.0716,0.0716,0.0772,0.0773,0.097,0,0,0,0.0688,0.0688,0.0696,0.0695,0.0705,0.0712,0.0713,0.0715,0.0715,0.0717,0.0716,0.0716,0.0771,0.0773,0.0963,0.1078,0,0,0,0.0686,0.0687,0.0695,0.0695,0.071,0.0713,0.0717,0.0715,0.0718,0.0716,0.0716,0.0771,0.0772,0.0957,0.1066,0.1266,0,0,0,0.0677,0.0698,0.0695,0.0715,0.071,0.0727,0.0717,0.0724,0.0724,0.0716,0.0772,0.0773,0.0955,0.1059,0.1256,0.1277,0.1322,0,0,0.0698,0.07,0.0711,0.0709,0.0733,0.0722,0.0785,0.0781,0.0748,0.0766,0.0768,0.0965,0.1065,0.1264,0.1367,0.141,0,0,0,0.0713,0.0723,0.0727,0.0742,0.0749,0.0833,0.0798,0.0849,0.092,0.0759,0.0942,0.0999,0.1119,0.1109,0.1143,0.1172,0.078,0.078,0.078,0.0737,0.0742,0.078,0.0799,0.0828,0.0895,0.1002,0.1064,0.0974,0.1059,0.1141,0.1401,0.1388,0.1415,0.1443,0.1102,0.1103,0.1104,0.1104,0.0792,0.0865,0.0858,0.091,0.0992,0.1062,0.1228,0.126,0.1464,0.1319,0.1426,0.1291,0.1465,0.148,0.1116,0.1114,0.1113,0.1112,0.1111,0.0857,0.0921,0.0921,0.1044,0.1173,0.1256,0.1502,0.1607,0.1666,0.1791,0.1784,0.1779,0.1816,0.1844,0.1845,0.1847,0.1848,0.1849,0.185,0.1002,0.101,0.1119,0.1227,0.1316,0.1496,0.1714,0.1856,0.2029,0.2029,0.2029,0.1907,0.1628,0.1626,0.1871,0.1868,0.1865,0.1863,0.1861,0.121,0.1221,0.1349,0.1435,0.1603,0.1712,0.1902,0.2126,0.2313,0.2398,0.2341,0.2166,0.2125,0.2093,0.21,0.2456,0.2456,0.2456,0.2456,0.1381,0.1394,0.153,0.1626,0.1765,0.1809,0.1975,0.2182,0.2446,0.2575,0.2605,0.2411,0.2385,0.2346,0.2309,0.2313,0.2716,0.2716,0.2716,0.1559,0.1553,0.1644,0.1671,0.1774,0.1831,0.1893,0.2067,0.2508,0.2729,0.2664,0.2653,0.2357,0.2314,0.2223,0.2167,0.216,0,0]},{"header":{"parameterUnit":"m.s-1","parameterCategory":2,"la1":30.2992,"la2":30.254,"lo1":-89.0895,"lo2":-89.0443,"dy":0.0025,"dx":0.0025,"nx":19,"ny":19,"refTime":"2026-05-21T03:00:00:Z","depth":"0","parameterNumber":3,"parameterNumberName":"V-component_of_CURRENTS"},"data":[0,0,0,-0.0207,-0.0209,-0.0281,-0.0282,-0.0351,-0.0351,0,0,0,0,0,0,0,0,0,0,0,-0.0182,-0.0182,-0.0207,-0.0209,-0.0281,-0.0282,-0.0351,-0.0351,0,0,0,0,0,0,0,0,0,0,0,-0.0181,-0.0182,-0.0182,-0.0209,-0.0281,-0.0282,-0.035,-0.0302,0,0,0,0,0,0,0,0,0,0,-0.0235,-0.0213,-0.0182,-0.0182,-0.021,-0.0281,-0.0282,-0.03,-0.0305,-0.031,0,-0.0322,0,-0.0337,-0.0355,-0.0355,0,0,0,-0.0212,-0.0209,-0.0229,-0.0182,-0.021,-0.0281,-0.0249,-0.0303,-0.0309,-0.0317,-0.0323,-0.0326,-0.0338,-0.0355,-0.0356,-0.0335,-0.0334,0,0,-0.0208,-0.0194,-0.0225,-0.0232,-0.0229,-0.0247,-0.0252,-0.0307,-0.0312,-0.0323,-0.0327,-0.0339,-0.0356,-0.0356,-0.0335,-0.0335,0,0,0,-0.0194,-0.0191,-0.0211,-0.0229,-0.0244,-0.0249,-0.0254,-0.0309,-0.0316,-0.0328,-0.034,-0.0356,-0.0357,-0.0336,-0.0335,-0.012,0,0,0,-0.0192,-0.0184,-0.0209,-0.0202,-0.0243,-0.0281,-0.0255,-0.0312,-0.0319,-0.034,-0.0356,-0.0357,-0.0337,-0.0336,-0.0128,0.0017,0,0,0,-0.0178,-0.0182,-0.0191,-0.0201,-0.0232,-0.028,-0.0291,-0.0314,-0.0326,-0.0355,-0.0358,-0.0337,-0.0336,-0.0134,0.0003,0.0159,0,0,0,-0.0162,-0.0188,-0.0191,-0.0225,-0.0231,-0.0271,-0.0291,-0.0334,-0.0361,-0.0356,-0.0337,-0.0335,-0.0136,-0.0006,0.0149,0.028,0.0333,0,0,-0.0188,-0.0191,-0.0213,-0.0217,-0.0236,-0.0261,-0.0217,-0.0264,-0.033,-0.0319,-0.0319,-0.0125,0.0002,0.0156,0.0369,0.0421,0,0,0,-0.0217,-0.0217,-0.0233,-0.0238,-0.0268,-0.0161,-0.0237,-0.0201,-0.0162,-0.0337,-0.0154,-0.008,0.0011,0.0068,0.0108,-0.0041,-0.0328,-0.0328,-0.0328,-0.021,-0.0215,-0.0186,-0.0167,-0.016,-0.0109,-0.0015,0.0031,-0.0096,-0.0025,0.0072,0.031,0.0369,0.0402,0.0245,0.0016,0.0017,0.0018,0.0018,-0.014,-0.0027,-0.0047,0.0002,0.0099,0.0169,0.0285,0.0279,0.0422,0.0271,0.0347,0.0262,0.0461,0.0276,0.0032,0.0029,0.0028,0.0026,0.0025,-0.0012,0.0087,0.0075,0.023,0.0384,0.0448,0.0719,0.0721,0.0661,0.0744,0.0765,0.0761,0.0623,0.076,0.0762,0.0763,0.0764,0.0765,0.0766,0.0255,0.0256,0.0403,0.0516,0.0628,0.0837,0.1001,0.1104,0.1146,0.1051,0.105,0.0696,0.0537,0.0536,0.0787,0.0783,0.078,0.0778,0.0777,0.0611,0.0597,0.0761,0.0867,0.1103,0.1312,0.1418,0.1589,0.1645,0.1673,0.1218,0.1205,0.1163,0.1126,0.1137,0.153,0.153,0.153,0.153,0.0897,0.0897,0.1097,0.124,0.1464,0.1547,0.1853,0.1926,0.1735,0.159,0.144,0.125,0.1226,0.1171,0.1134,0.1137,0.1521,0.152,0.1519,0.1202,0.1165,0.1332,0.1372,0.1578,0.1768,0.1985,0.2075,0.1773,0.1493,0.1217,0.1218,0.0897,0.0871,0.0734,0.0694,0.0677,0,0]}],[{"header":{"parameterUnit":"m.s-1","parameterCategory":2,"la1":30.2992,"la2":30.254,"lo1":-89.0895,"lo2":-89.0443,"dy":0.0025,"dx":0.0025,"nx":19,"ny":19,"refTime":"2026-05-21T03:00:00:Z","depth":"2","parameterNumber":2,"parameterNumberName":"U-component_of_CURRENTS"},"data":[0,0,0,0.0699,0.07,0.0728,0.0728,0.0726,0.0726,0,0,0,0,0,0,0,0,0,0,0,0.069,0.0691,0.0699,0.07,0.0728,0.0728,0.0726,0.0726,0,0,0,0,0,0,0,0,0,0,0,0.069,0.069,0.0691,0.07,0.0728,0.0728,0.0726,0.0712,0,0,0,0,0,0,0,0,0,0,0.0689,0.0688,0.069,0.0691,0.07,0.0728,0.0728,0.0712,0.0713,0.0706,0,0.0719,0,0.0726,0.0726,0.0726,0,0,0,0.0691,0.0687,0.0698,0.0691,0.0701,0.0728,0.0713,0.0713,0.0714,0.0707,0.0719,0.0719,0.0726,0.0726,0.0726,0.0772,0.0773,0,0,0.069,0.0689,0.0697,0.0699,0.0719,0.0712,0.0714,0.0714,0.0717,0.0719,0.072,0.0726,0.0726,0.0726,0.0772,0.0773,0,0,0,0.0691,0.0688,0.0699,0.0699,0.0709,0.0713,0.0715,0.0717,0.0722,0.072,0.0726,0.0726,0.0726,0.0771,0.0772,0.0938,0,0,0,0.069,0.0689,0.0698,0.0697,0.0709,0.0718,0.0718,0.0722,0.0723,0.0726,0.0726,0.0726,0.0771,0.0772,0.0932,0.1011,0,0,0,0.0687,0.0688,0.0696,0.0697,0.0713,0.0718,0.0723,0.0723,0.0726,0.0726,0.0726,0.077,0.0772,0.0927,0.1002,0.1155,0,0,0,0.0678,0.0699,0.0696,0.0718,0.0713,0.0732,0.0723,0.0732,0.0734,0.0726,0.0771,0.0772,0.0925,0.0996,0.1148,0.0943,0.096,0,0,0.0699,0.0702,0.0713,0.0712,0.0736,0.0727,0.0781,0.0779,0.0752,0.0765,0.0766,0.0934,0.1001,0.1154,0.1015,0.1031,0,0,0,0.0716,0.0726,0.0732,0.0747,0.0754,0.0824,0.0796,0.0833,0.0891,0.0762,0.0913,0.0949,0.1042,0.0901,0.0913,0.0778,0.0778,0.0778,0.0778,0.0741,0.0745,0.0779,0.0796,0.0824,0.0878,0.0963,0.1009,0.0936,0.1004,0.1069,0.1274,0.1121,0.1129,0.1044,0.1045,0.1046,0.1046,0.1047,0.0791,0.0846,0.0845,0.089,0.0957,0.1015,0.1145,0.117,0.1321,0.1208,0.129,0.106,0.1153,0.1059,0.1057,0.1055,0.1054,0.1053,0.1052,0.0841,0.0888,0.0892,0.0993,0.1094,0.1164,0.1341,0.1444,0.1482,0.158,0.1422,0.1415,0.1416,0.1623,0.1624,0.1626,0.1626,0.1627,0.1628,0.0948,0.0955,0.1012,0.1126,0.1183,0.1328,0.1493,0.1582,0.1642,0.1592,0.1589,0.1469,0.145,0.1449,0.1644,0.1641,0.1639,0.1637,0.1636,0.1055,0.1068,0.1107,0.1159,0.1294,0.1335,0.151,0.1575,0.1732,0.1727,0.1605,0.16,0.1539,0.1521,0.1519,0.1723,0.1723,0.1723,0.1723,0.1119,0.1146,0.1096,0.1117,0.1229,0.1295,0.1297,0.1379,0.1504,0.1484,0.1495,0.1281,0.1281,0.1194,0.1184,0.117,0.1284,0.1283,0.1283,0.1152,0.1098,0.1017,0.1012,0.1099,0.1144,0.1043,0.1058,0.1146,0.1271,0.1477,0.1682,0.1383,0.1378,0.1245,0.123,0.1207,0,0]},{"header":{"parameterUnit":"m.s-1","parameterCategory":2,"la1":30.2992,"la2":30.254,"lo1":-89.0895,"lo2":-89.0443,"dy":0.0025,"dx":0.0025,"nx":19,"ny":19,"refTime":"2026-05-21T03:00:00:Z","depth":"2","parameterNumber":3,"parameterNumberName":"V-component_of_CURRENTS"},"data":[0,0,0,-0.0328,-0.033,-0.0398,-0.0398,-0.0465,-0.0466,0,0,0,0,0,0,0,0,0,0,0,-0.0304,-0.0305,-0.0328,-0.033,-0.0398,-0.0398,-0.0465,-0.0466,0,0,0,0,0,0,0,0,0,0,0,-0.0304,-0.0305,-0.0305,-0.033,-0.0397,-0.0398,-0.0465,-0.042,0,0,0,0,0,0,0,0,0,0,-0.0356,-0.0335,-0.0304,-0.0305,-0.033,-0.0397,-0.0398,-0.0418,-0.0422,-0.0428,0,-0.0439,0,-0.0453,-0.047,-0.047,0,0,0,-0.0333,-0.0331,-0.035,-0.0305,-0.0331,-0.0397,-0.0368,-0.042,-0.0426,-0.0435,-0.044,-0.0443,-0.0454,-0.047,-0.047,-0.0481,-0.0481,0,0,-0.0329,-0.0317,-0.0346,-0.0353,-0.0348,-0.0366,-0.037,-0.0424,-0.0429,-0.044,-0.0444,-0.0455,-0.0471,-0.0471,-0.0481,-0.0481,0,0,0,-0.0316,-0.0314,-0.0332,-0.035,-0.0364,-0.0368,-0.0372,-0.0426,-0.0432,-0.0445,-0.0456,-0.0471,-0.0472,-0.0482,-0.0481,-0.0368,0,0,0,-0.0314,-0.0307,-0.033,-0.0324,-0.0363,-0.0398,-0.0373,-0.0429,-0.0435,-0.0456,-0.0471,-0.0472,-0.0482,-0.0482,-0.0372,-0.0309,0,0,0,-0.0301,-0.0305,-0.0313,-0.0323,-0.0351,-0.0398,-0.0408,-0.0431,-0.0442,-0.047,-0.0472,-0.0482,-0.0482,-0.0376,-0.0316,-0.0254,0,0,0,-0.0286,-0.031,-0.0313,-0.0344,-0.035,-0.0391,-0.0407,-0.0448,-0.0474,-0.0471,-0.0482,-0.0481,-0.0377,-0.032,-0.0259,-0.0483,-0.0481,0,0,-0.031,-0.0313,-0.0332,-0.0336,-0.0361,-0.0382,-0.0377,-0.0421,-0.0459,-0.0465,-0.0465,-0.0371,-0.0317,-0.0255,-0.0441,-0.044,0,0,0,-0.0336,-0.0338,-0.0353,-0.0363,-0.0392,-0.0357,-0.0403,-0.0401,-0.0395,-0.047,-0.0388,-0.0357,-0.0322,-0.0468,-0.0467,-0.0478,-0.0478,-0.0478,-0.0478,-0.0332,-0.0341,-0.0342,-0.034,-0.0343,-0.0345,-0.0314,-0.031,-0.0365,-0.0339,-0.0278,-0.017,-0.0327,-0.0328,-0.0302,-0.0301,-0.0301,-0.03,-0.03,-0.0305,-0.0273,-0.0274,-0.0263,-0.0233,-0.0209,-0.0181,-0.019,-0.0126,-0.0197,-0.0168,-0.0358,-0.0321,-0.0292,-0.0293,-0.0294,-0.0295,-0.0296,-0.0296,-0.0235,-0.0214,-0.021,-0.0156,-0.0111,-0.0094,-0.0037,0.0005,-0.0012,0.0033,-0.0154,-0.016,-0.0085,0.0042,0.0043,0.0043,0.0044,0.0044,0.0045,-0.0136,-0.0136,-0.0143,-0.0059,-0.004,0.0011,0.0056,0.0065,0.0025,-0.0044,-0.0047,-0.0055,-0.0066,-0.0066,0.0053,0.0052,0.0051,0.005,0.0049,-0.0111,-0.0108,-0.0124,-0.0118,-0.0103,-0.0035,0.0008,-0.0028,-0.0002,-0.0041,-0.0106,-0.0105,-0.0162,-0.0169,-0.0173,-0.0087,-0.0087,-0.0087,-0.0087,-0.0138,-0.0115,-0.0253,-0.0309,-0.0272,-0.0147,-0.0093,0.0026,0.002,-0.0013,-0.0013,-0.0131,-0.0132,-0.0191,-0.0197,-0.0204,-0.0124,-0.0123,-0.0122,-0.0241,-0.0262,-0.0423,-0.0465,-0.0418,-0.0313,-0.011,0.0162,0.0094,-0.01,0.0221,-0.0136,-0.0327,-0.032,-0.0432,-0.0432,-0.0452,0,0]}],[{"header":{"parameterUnit":"m.s-1","parameterCategory":2,"la1":30.2992,"la2":30.254,"lo1":-89.0895,"lo2":-89.0443,"dy":0.0025,"dx":0.0025,"nx":19,"ny":19,"refTime":"2026-05-21T03:00:00:Z","depth":"4","parameterNumber":2,"parameterNumberName":"U-component_of_CURRENTS"},"data":[0,0,0,0.023,0.0231,0.0301,0.0302,0.0434,0.0436,0,0,0,0,0,0,0,0,0,0,0,0.0209,0.0209,0.023,0.0231,0.0301,0.0302,0.0434,0.0436,0,0,0,0,0,0,0,0,0,0,0,0.0209,0.0209,0.021,0.0231,0.0301,0.0302,0.0434,0.0373,0,0,0,0,0,0,0,0,0,0,0.0301,0.027,0.0209,0.021,0.0232,0.0301,0.0302,0.037,0.0377,0.0411,0,0.0417,0,0.0424,0.0444,0.0445,0,0,0,0.0243,0.0264,0.0281,0.021,0.0232,0.0301,0.0273,0.0374,0.0382,0.0421,0.0419,0.0423,0.0426,0.0445,0.0446,0.0607,0.0608,0,0,0.0239,0.0227,0.0276,0.0286,0.0245,0.0271,0.0275,0.0378,0.0386,0.0419,0.0426,0.0429,0.0446,0.0447,0.0607,0.0608,0,0,0,0.022,0.0224,0.0239,0.0281,0.0288,0.0272,0.0278,0.0382,0.0386,0.0428,0.043,0.0447,0.0448,0.0606,0.0607,0.0608,0,0,0,0.0218,0.0212,0.0237,0.0231,0.0285,0.0329,0.0279,0.0379,0.0391,0.0429,0.0447,0.045,0.0605,0.0606,0.0606,0.058,0,0,0,0.0207,0.0211,0.0217,0.023,0.0255,0.0327,0.0338,0.0382,0.0392,0.0445,0.045,0.0604,0.0606,0.0604,0.0578,0.0621,0,0,0,0.0196,0.0195,0.0217,0.0226,0.0254,0.0316,0.0337,0.0408,0.0458,0.0448,0.0605,0.0607,0.0603,0.0577,0.062,0.0516,0,0,0,0.0186,0.0194,0.02,0.0221,0.027,0.0307,0.0398,0.0478,0.0498,0.0574,0.0578,0.0606,0.0578,0.0621,0.0628,0,0,0,0,0.0191,0.0202,0.0217,0.0256,0.0304,0.0393,0.0474,0.0498,0.0577,0.0532,0.0645,0.0627,0.0654,0.0591,0.0616,0.0616,0.0616,0.0615,0.0615,0.0171,0.0207,0.0249,0.0319,0.037,0.0478,0.0533,0.0596,0.0619,0.0657,0.0657,0.0726,0.0663,0.0705,0.0705,0.0705,0.0705,0.0706,0.0706,0.0191,0.0225,0.0298,0.0355,0.0454,0.054,0.0622,0.0649,0.0705,0.0694,0.0721,0.0632,0.0707,0.0706,0.0706,0.0706,0.0706,0.0706,0.0706,0.0197,0.0221,0.0279,0.0376,0.0473,0.0566,0.0628,0.0671,0.0699,0.072,0.0689,0.0737,0.0703,0.0754,0.0754,0.0754,0.0754,0.0754,0.0754,0.0178,0.0239,0.0269,0.0376,0.0418,0.0498,0.0615,0.0671,0.0729,0.0672,0.0728,0.0742,0.074,0.0708,0.0756,0.0755,0.0755,0.0755,0.0755,0.0152,0.0166,0.0203,0.0239,0.0337,0.0395,0.0535,0.0653,0.07,0.0705,0.0664,0.0668,0.0657,0.0658,0.0622,0.0645,0.0644,0.0643,0,0.0097,0.0117,0.0123,0.0145,0.0204,0.0318,0.0394,0.052,0.0587,0.0512,0.0677,0.0622,0.0627,0.0609,0.0608,0.0562,0,0,0,0.0043,0.0058,0.0033,0.0079,0.013,0.0266,0.0416,0.0434,0.0541,0.0642,0.0613,0.0621,0.0791,0.076,0.0754,0.0752,0.07,0,0]},{"header":{"parameterUnit":"m.s-1","parameterCategory":2,"la1":30.2992,"la2":30.254,"lo1":-89.0895,"lo2":-89.0443,"dy":0.0025,"dx":0.0025,"nx":19,"ny":19,"refTime":"2026-05-21T03:00:00:Z","depth":"4","parameterNumber":3,"parameterNumberName":"V-component_of_CURRENTS"},"data":[0,0,0,0.0254,0.0254,0.0285,0.0285,0.0321,0.0322,0,0,0,0,0,0,0,0,0,0,0,0.0244,0.0244,0.0254,0.0255,0.0285,0.0285,0.0321,0.0322,0,0,0,0,0,0,0,0,0,0,0,0.0244,0.0244,0.0245,0.0255,0.0285,0.0285,0.0321,0.0298,0,0,0,0,0,0,0,0,0,0,0.0269,0.0254,0.0244,0.0245,0.0255,0.0285,0.0285,0.0297,0.03,0.0308,0,0.0316,0,0.0321,0.0324,0.0325,0,0,0,0.0252,0.0251,0.0268,0.0245,0.0255,0.0285,0.027,0.0299,0.0302,0.0311,0.0317,0.0318,0.0322,0.0325,0.0325,0.0297,0.0296,0,0,0.025,0.0241,0.0266,0.027,0.0268,0.0269,0.0271,0.03,0.0301,0.0317,0.0319,0.0322,0.0325,0.0325,0.0298,0.0297,0,0,0,0.0247,0.024,0.0255,0.0268,0.0275,0.027,0.0273,0.0299,0.0307,0.032,0.0323,0.0325,0.0326,0.0298,0.0297,0.0217,0,0,0,0.0246,0.0238,0.0255,0.0248,0.0274,0.0286,0.027,0.0305,0.0308,0.0323,0.0325,0.0326,0.0299,0.0298,0.0221,0.0207,0,0,0,0.0242,0.0237,0.0244,0.0248,0.0263,0.0285,0.0294,0.0306,0.031,0.0325,0.0326,0.0299,0.0298,0.0224,0.0212,0.021,0,0,0,0.0226,0.027,0.0244,0.0295,0.0263,0.0325,0.0294,0.0333,0.0351,0.0325,0.0299,0.0297,0.0225,0.0215,0.0212,0.0332,0,0,0,0.0282,0.0275,0.0309,0.0289,0.0344,0.032,0.0328,0.033,0.0321,0.0291,0.029,0.022,0.0212,0.021,0.0247,0,0,0,0,0.0329,0.0342,0.0363,0.0378,0.0407,0.0353,0.0362,0.0321,0.0246,0.0323,0.0213,0.0212,0.0213,0.0289,0.029,0.0291,0.0291,0.0291,0.0291,0.0366,0.0379,0.0401,0.0401,0.0416,0.038,0.033,0.0258,0.026,0.0185,0.014,0.0078,0.0152,0.0123,0.0123,0.0122,0.0122,0.0122,0.0122,0.0377,0.0332,0.0359,0.0365,0.032,0.0294,0.0224,0.0178,0.0076,0.0063,0.0068,0.019,0.0113,0.0115,0.0116,0.0117,0.0118,0.0118,0.0119,0.0315,0.0273,0.0294,0.0251,0.0208,0.0173,0.0143,0.0061,0.0008,-0.0018,0.0083,0.0042,0.0059,-0.0029,-0.0029,-0.0029,-0.0029,-0.0029,-0.0029,0.0156,0.0183,0.0164,0.0118,0.0119,0.0089,0.0064,0.0089,0.0036,0.0024,-0.0045,0.0028,0.0033,0.0051,-0.0031,-0.0031,-0.003,-0.003,-0.003,0.0022,0.003,0.0049,0.0063,0.0091,0.0106,0.0092,0.0155,0.0159,0.0172,0.0068,0.0064,0.0119,0.0122,0.0146,0.0088,0.0089,0.009,0,-0.0073,-0.0081,0.0033,0.0128,0.0173,0.018,0.0255,0.0296,0.0232,0.0184,0.0183,0.0064,0.0062,0.0126,0.0131,0.016,0,0,0,-0.0129,-0.0059,0.0059,0.0179,0.0268,0.0316,0.0301,0.031,0.0176,0.0296,0.0122,0.0114,0.0189,-0.0036,0.0039,0.0045,0.0079,0,0]}]]